Find Starlink 33693

NORAD ID: 63409 Int'l Des: 2025-065 Owner: SPXS Country: US Constellation: starlink operational
LEOCIRCULAR

当前视图

正在加载3D地球...

About Starlink 33693

Starlink 33693 (NORAD 63409) is a starlink constellation satellite (v2 mini) launched Mar 31, 2025 by SPXS of US. It operates in LEO, CIRCULAR orbit with a mass of 575.00 kg.

关于 Starlink 33693

正在加载描述...

即将过境

Passes for default location (London). Set your location on the main map for personalized predictions.

高度历史

Loading altitude history...

两行轨道根数

1 63409U 25065L 26167.97338294 .00009447 00000-0 35221-3 0 9997
2 63409 42.9983 266.4112 0001644 273.5620 86.5044 15.27594364 68020
Epoch: Jun 16, 2026 • Age: 28 hours

当前状态

高度 482.4 km
速度 7.63 km/s
星下点 17.09°N, 43.3°W
发射日期 Mar 31, 2025
运行时间 1.2 years
类型 internet

技术详情

分类 Payload
质量 575.00 kg
干质量 530.00 kg
总质量 575.00 kg
长度 0.30 m
直径 4.10 m
跨度 29.00 m
形状 Box + pan
制造商 SPXS
平台类型 Starlink V2MO
阶段状态 In Orbit
所有者/国家 SPXS/US

Most Searched